"Pseudo-MPEC" for C293QJ2

Created 2020 Feb 27 19:07:10 UT using Find_Orb

Click here for an explanation of pseudo-MPECs

 
 Astrometry: 
     C293QJ2  C2020 02 26.21575 10 25 40.66 +10 31 30.2    ~2Q67 18.5 GVNEOCPG96
     C293QJ2  C2020 02 26.22131 10 25 42.79 +10 30 29.2    ~2Q67 18.6 GVNEOCPG96
     C293QJ2  C2020 02 26.22687 10 25 44.92 +10 29 29.7    ~2Q67 18.6 GVNEOCPG96
     C293QJ2  C2020 02 26.23243 10 25 47.03 +10 28 30.0    ~2Q67 18.6 GVNEOCPG96
     C293QJ2  C2020 02 26.29154 10 26 08.13 +10 18 07.6    ~2Q7q 18.5 GVNEOCP703
     C293QJ2  C2020 02 26.29676 10 26 09.93 +10 17 14.1    ~2Q7q 18.4 GVNEOCP703
     C293QJ2  C2020 02 26.30198 10 26 11.71 +10 16 19.9    ~2Q7q 18.8 GVNEOCP703
     C293QJ2  C2020 02 26.30720 10 26 13.45 +10 15 25.6    ~2Q7q 18.5 GVNEOCP703
     C293QJ2 KC2020 02 26d.*Ih1Up$oT#U#4eqR$$%-?Y-?_GQle:0pcS[s#_hWwZPb+\A0a(711
     C293QJ2 !C2020 02 26)@i#Z7.LH6Lfib_lG'Id$^nAiQS8D73h:m%Hs[K/bkSJPyK1I5ia673
     C293QJ2 KC2020 02 26^0*5^'KAstrometryunmiark4-pxoaQskPES4lnrVya]7ibf7UUy711
     C293QJ2 KC2020 02 26'34qe^XWJGLTkrIcO%f9HN%_)4^04Lx+k\d.:h/p:c;gf%ph^\',711
     C293QJ2 !C2020 02 26d`kmt*W/0Un!lXc,FrV;6r\QRk5hLAR3fy-p0p?e\1wEqx(9.O0+673
     C293QJ2  C2020 02 26.43939210 27 13.52 +09 55 12.9    ~2QLq 18.54oVNEOCPT08
     C293QJ2  C2020 02 26.44288010 27 14.54 +09 54 40.1    ~2QLq 19.11oVNEOCPT08
     C293QJ2  C2020 02 26.44817310 27 16.02 +09 53 51.3    ~2QLq 18.41oVNEOCPT08
     C293QJ2  C2020 02 26.45945210 27 19.21 +09 52 05.2    ~2QLq 18.36oVNEOCPT08
     C293QJ2  C2020 02 26.79970 10 29 47.49 +09 02 09.3    ~2QJb 18.6 VVNEOCP033
     C293QJ2  C2020 02 26.80027 10 29 47.66 +09 02 05.5    ~2QJb 18.4 VVNEOCP033
     C293QJ2  C2020 02 26.80082 10 29 47.81 +09 02 01.9    ~2QJb 18.8 VVNEOCP033
     C293QJ2 KC2020 02 26[UtI(oU;[.H,sf]^HI[n@YfHLN!^a6:[_BPn]f_r@X8Xpa',/!?OK63
     C293QJ2 KC2020 02 26$l#G;B^/#wQ.lhNH(FC:^!1y\=.]\7a(nB*0dB?AsKO?m#hu#16fK63
     C293QJ2 KC2020 02 26!;Hr$_ToG7dCut-qmNjXd2[Ra9=wU]RJ+JNDYDEp.hE\uO$`H\JZK63
     C293QJ2 KC2020 02 26qVA0sse0redacted;K6ov:U_%$NJ`#@j'8=QL5-GE[teEFU;vsU+L39
     C293QJ2 KC2020 02 26jndnvh/.y[4ky?q4'3mxamSVi'eNqZ8eVt04MlrEvi3WbFMUyhH,L39
     C293QJ2 KC2020 02 26Ek30?^DW$U7Re%1[xV1BCh*j;_i*-u)xcmq!8(%m?X2D8DYjTk2xL39
     C293QJ2 KC2020 02 26.99173010 30 36.37 +08 40 55.1    ~2R0M 18.6 GVNEOCPC95
     C293QJ2 KC2020 02 26.99869410 30 37.76 +08 40 09.2    ~2R0M 18.6 GVNEOCPC95
     C293QJ2  C2020 02 273pBOU13`pn#ce%!m^Hfp[db%DS35?eH6-Qkrb34V6xBoSi.V$]@gJ04
     C293QJ2  C2020 02 27dt)S9oV)aOu7.:mxliHFYVHi4_/!UNO^'iS7LVy!+%89s`kf)9foJ04
     C293QJ2  C2020 02 27h+*Mo_(C5@$Xt**oclick`itR\G8MgvgS86AxtHGZ*DIKH'ye]3KJ04
     C293QJ2 KC2020 02 27.00434510 30 38.94 +08 39 33.1    ~2R0M 19.0 GVNEOCPC95
     C293QJ2 KC2020 02 27La$./p[vl*_mK7gN^GX(p]*Q\I=s6BExF-aqC7=EAVlmmZu+[Sg,X31
     C293QJ2 KC2020 02 27kL]MOT!eQF=Q.$HQfP7BC*j#YO^3=jXi(_\`]3-!eoYgFOSvgP?KX31
     C293QJ2 KC2020 02 27@v+Ihere[rf%P/-5'Dve1]@PRyR)KNp!HuuxEYRe9(OFrVDnAV+;X31
     C293QJ2 3C2020 02 27,7oJixPqH+sC'r$QVED9tk1QiYLEdhRU7VD5,o]8iZsa^Sl;x7TMG40
     C293QJ2 pC2020 02 27\eXKx*KL#qc3oR@di2-J+n.8;#6,W=hvumtZ6,uaJ/VV)uF;(JQXL01
     C293QJ2 3C2020 02 278l\(xmF@jugU`U[p@DMvMHvB*Fv[Yh';KYbqSRFAK[ZP^;#4B%1eG40
     C293QJ2 pC2020 02 2701;Ej*M_U`H:L5%(p_Ff6^'mMJM8i]I*\:hcyCJGIPS[XIAYi1qqL01
     C293QJ2 KC2020 02 27$xu+6dh`H%T7h-Zl/^0ehcFFfAYVRQ'1)@f_Zhh%,u:S^xc#fMJfL01
     C293QJ2 3C2020 02 27mEFIRQPcZ,YTLr4;6V@wRZPj29nR@r?4=?7IJBf^NF9!r'c^6`jKG40
     C293QJ2  C2020 02 27.16276 10 31 40.70 +08 23 54.2    ~2R4M 18.8 GVNEOCPI52
     C293QJ2  C2020 02 27.16653 10 31 41.47 +08 23 32.7    ~2R4M 19.9 GVNEOCPI52
     C293QJ2  C2020 02 27.16671 10 31 41.51 +08 23 31.2    ~2R4M 19.2 GVNEOCPI52
     C293QJ2 KC2020 02 27j4])(6$T/lLN)ux%b6TbO/Z1%Co;]9fMM$10:5dI'6Qd2)jt?x6IH36
     C293QJ2 KC2020 02 27-pZ2:)'wBH%IL6Y@KDC,4tJWnNvldES[Y?ObG^o+.uAg;Fe^,T21734
     C293QJ2 KC2020 02 27TC%)?Lm?%(xy1;F8yow-jsO_?nwHc7W,p`Kv-DVjwU!8Um7JkyndH36
     C293QJ2 KC2020 02 27(S]vPcy9TVE%pJ!WoW!l2#^gpukaN_%Vlc-B,554:f_;w.MyT9V8734
     C293QJ2 KC2020 02 27[LgLhfmLXVYU7?jL5YfU[SbR4.L]4mcc)J6ZIqqC;C2NchlEAL-M734
     C293QJ2 KC2020 02 27`c5fIZwG*3=d74\Z*YlXC4%BU+)\Fmq2GuFeUDg_1*IHs_\#?)5=734
     C293QJ2 KC2020 02 27n^Mg/F4[2\VYG1W4Jh?skl3'o,0^H(S`U-MSy?x/xEt/4DR-rCy_H36
     C293QJ2  C2020 02 27.29823 10 32 03.85 +08 11 18.6    ~2R87 19.2 GVNEOCPG96
     C293QJ2  C2020 02 27.30844 10 32 05.35 +08 10 23.0    ~2R87 19.4 GVNEOCPG96
     C293QJ2  C2020 02 27.31355 10 32 06.10 +08 09 55.3    ~2R87 19.3 GVNEOCPG96
     C293QJ2 KC2020 02 27$Hk5`mq9-L4D-PxMN-%N\5ZgI,dEB$jWd](XforDexplanationT711
     C293QJ2 KC2020 02 27XYSf/Qm^8rfN-(/N+ol-;5e+F)COaA]t6:0A-HZ%4.gqoGg.\QMA711
     C293QJ2 KC2020 02 27QVZ`l`.,JPmrdL,L9DcIe%1!0^Bao;vgUnY;?@,28J^ywR!A;%`@711

Station data:
(033) Karl Schwarzschild Observatory, Tautenburg  (N50.980140 E11.711240)
   Germany. 1.3-m Schmidt.
(673) Table Mountain Observatory, Wrightwood  (N34.381488 W117.682170)
   US/California.  Observer W. M. Owen Jr. 0.61-m f/16 reflector + CCD.
(703) Catalina Sky Survey  (N32.417006 W110.732640)  US/Arizona.  Observers
   T. A. Pruyne, B. M. Africano, E. J. Christensen, G. A. Farneth, D. C.
   Fuls, A. R. Gibbs, A. D. Grauer, H. Gröller, J. A. Johnson, R. A.
   Kowalski, S. M. Larson, G. J. Leonard, D. Rankin, R. L. Seaman, F. C.
   Shelly. 0.68 m Schmidt + 10K CCD.
(711) McDonald Observatory, Fort Davis  (N30.671481 W104.021500)  US/Texas.
   0.76-m f/3.0 reflector.
(734) Farpoint Observatory, Eskridge  (N38.890107 W96.001400)  US/Kansas.
   Observer G. Hug. 0.69-m reflector + CCD.
(C95) SATINO Remote Observatory, Haute Provence  (N43.932042 E5.712390)
   France. 0.60-m f/3.2 Newtonian reflector + CCD.
(G40) Slooh.com Canary Islands Observatory  (N28.299720 W16.508260)  Canary
   Islands (Spain).  Observers G. Gašparović, Y. Chen. 0.43-m f/6.8 Corrected
   Dall-Kirkham + CCD.
(G96) Mt. Lemmon Survey  (N32.442754 W110.788720)  US/Arizona.  Observers T.
   A. Pruyne, B. M. Africano, E. J. Christensen, G. A. Farneth, D. C. Fuls,
   A. R. Gibbs, A. D. Grauer, H. Gröller, J. A. Johnson, R. A. Kowalski, S.
   M. Larson, G. J. Leonard, D. Rankin, R. L. Seaman, F. C. Shelly. 1.5-m
   reflector + 10K CCD.
(H36) Sandlot Observatory, Scranton  (N38.797693 W95.706400)  US/Kansas.
   Observer G. Hug. 0.56-m reflector + CCD.
(I52) Steward Observatory, Mt. Lemmon Station  (N32.442547 W110.788920)
   US/Arizona.  Observers T. A. Pruyne, B. M. Africano, E. J. Christensen, G.
   A. Farneth, D. C. Fuls, A. R. Gibbs, A. D. Grauer, H. Gröller, J. A.
   Johnson, R. A. Kowalski, S. M. Larson, G. J. Leonard, D. Rankin, R. L.
   Seaman, F. C. Shelly. 1.0-m reflector + CCD.
(J04) ESA Optical Ground Station, Tenerife  (N28.300924 W16.511830)  Canary
   Islands (Spain).  Observer D. Abreu. Measurers M. Micheli, D. Koschny, E.
   Schwab, M. Busch, A. Knöfel. 1.0-m f/4.4 reflector + CCD.
(K63) G. Pascoli Observatory, Castelvecchio Pascoli  (N44.082410 E10.462000)
   Italy.
(L01) Višnjan Observatory, Tičan  (N45.290900 E13.749300)  Croatia.
   Observers K. Korlević, E. Pettarin. Measurer E. Pettarin. 1.0-m f/2.9
   reflector + CCD.
(L39) Osservatorio Spica, Signa  (N43.789205 E11.040310)  Italy.
(T08) ATLAS-MLO, Mauna Loa  (N19.536152 W155.576050)  US/Hawaii.  Observers
   L. Denneau, A. Heinze, H. Weiland, J. Tonry, H. Flewelling, A.
   Fitzsimmons, D. Young, B. Stalder. Measurers L. Denneau, A. Heinze, J.
   Tonry. 0.5-m f/2.0 Schmidt + CCD.
(X31) Galileo Galilei Observatory, Oro Verde  (S31.823022 W60.520660)
   Argentina.

Orbital elements:  C293QJ2
   Perihelion 2020 Jan 7.080511 +/- 0.00852 TT =  1:55:56 (JD 2458855.580511)
Epoch 2020 Feb 27.0 TT = JDT 2458906.5   Earth MOID: 0.0019   Ve: 0.0326
M  25.38390763 +/- 0.023            Ma: 0.0384                AutoNEOCP
n   0.49851065 +/- 0.000369         Peri.  103.57760 +/- 0.0043
a   1.57526304 +/- 0.000777         Node   337.09111 +/- 0.000029
e   0.5264791 +/- 0.000301          Incl.    2.08065 +/- 0.0009
P   1.98/722.14d           H 26.8   G  0.15   U  7.4  
q 0.74591988 +/- 0.00011    Q 2.40460621 +/- 0.00166
From 57 observations 2020 Feb. 26-27 (26.9 hr); mean residual 0".38
Residuals in arcseconds: 
200226 G96  .23+  1.2+    200226 033  .35-  .18+    200227 L01  .77-  .39+    
200226 G96  .13-  .10+    200226 K63  .09-  .32-    200227 L01  .00   .01-    
200226 G96  .11-  .36+    200226 K63  .27-  .12-    200227 G40  .42-  .02+    
200226 G96  .03-  .23+    200226 K63  .14-  .47+    200227 I52  .18+  .10+    
200226 703  .51-  .19+    200226 L39  .98+  .87+    200227 I52  .14+  .10+    
200226 703  .30-  .76+    200226 L39  .97+  .17+    200227 I52  .19+  .37-    
200226 703  .24-  .48+    200226 L39  .39+  .41+    200227 H36  .42+  .14-    
200226 703  .64-  .04-    200226 C95  .06-  .19+    200227 734  .01+  .01+    
200226 711  .02+  .27+    200226 C95  .60-  .40-    200227 H36  .23+  .18+    
200226 673  .28+  .42-    200227 J04  .01-  .19+    200227 734  .10-  .29-    
200226 711  .03+  .27+    200227 J04  .07-  .07+    200227 734  .24-  .91-    
200226 711  .37+  .28-    200227 J04  .04-  .07+    200227 734  .19+  .39-    
200226 673  .11-  .08-    200227 C95  .23-  .18+    200227 H36  .26+  .31+    
200226 T08  .34-  .09+    200227 X31  .72-  .22-    200227 G96  .06+  .06-    
200226 T08  .14+  .03+    200227 X31  .28-  .06-    200227 G96  .04-  .01+    
200226 T08  .07-  .82+    200227 X31  .28-  .04+    200227 G96  .04-  .10+    
200226 T08  .17+  .01-    200227 G40  .30-  .11-    200227 711  .60+  .66+    
200226 033  .18-  .39-    200227 L01  .37-  .78-    200227 711  .35+  .37+    
200226 033  .17-  .14-    200227 G40  .55-  .04-    200227 711  1.1+  .20+    

Ephemerides (geocentric):
Date (UTC) HH   RA              Dec         delta   r     elong  mag " sig PA
---- -- -- --  -------------   -----------  ------ ------ -----  --- ---- ---
2020 02 27 19  10 33 53.296   +07 33 28.80  .03327 1.0236 178.2 19.7 5.7m 178
